Regional Weather Roundup
Issued by NWS

Home | Current Version | Previous Version | Text Only | Print | Product List | Glossary Off
Versions: 1 2 3 4 5 6 7 8 9 10 11 12 13 14 15 16 17 18 19 20 21 22 23 24 25 26 27 28 29 30 31 32 33 34 35 36 37 38 39 40 41 42 43 44 45 46 47 48 49 50

000
ASUS45 KSLC 020710
RWRUT

UTAH REGIONAL WEATHER ROUNDUP
NATIONAL WEATHER SERVICE SALT LAKE CITY UT
100 AM MDT THU APR 02 2015

UTZ001>011-023>025-020800-

NORTHERN UTAH

CITY           SKY/WX    TMP DP  RH WIND       PRES   REMARKS
BRIGHAM CITY   CLOUDY    43   4  19 N6        29.99R
HILL AFB       CLOUDY    41  14  33 N3        29.96S
LOGAN          CLEAR     35  15  44 N12       29.99S WCI  27
OGDEN          CLOUDY    40  16  37 N5        29.96S
PROVO AIRPORT  MOCLDY    36  16  44 N5        29.95S WCI  32
SALT LAKE CITY CLOUDY    42  13  30 NW10      29.96R
VERNAL         MOCLDY    42   4  20 E5        29.94R
WENDOVER       CLOUDY    43   9  24 N6        30.01S
HEBER CITY     PTCLDY    23   9  54 CALM      29.96S
WEST JORDAN    CLEAR     39   7  26 CALM      29.97R

$$

UTZ012>022-026-027-020800-

SOUTHERN/CENTRAL UTAH

CITY           SKY/WX    TMP DP  RH WIND       PRES   REMARKS
BLANDING       PTCLDY    43  16  34 NE8       29.94S
BRYCE CANYON   MOCLDY    27  20  75 SW3       29.93F
CEDAR CITY     CLOUDY    40  15  36 W3        29.85F
DELTA          MOCLDY    38  -1  19 N8        29.91S WCI  32
HANKSVILLE     MOCLDY    52   7  16 CALM      29.86S
MILFORD        CLOUDY    42   3  19 N16       29.87F
MOAB/CYNLANDS  CLEAR     52   5  15 VRB5      29.83R
PRICE          CLOUDY    43   2  18 NW5       29.87F
ST GEORGE      MOSUNNY   59  12  15 SE8       29.77F
KANAB          PTCLDY    36  19  51 NE3       29.90F

$$

REGIONAL REPORTS     COLORADO/ARIZONA

CITY           SKY/WX    TMP DP  RH WIND       PRES   REMARKS
CRAIG, CO      CLOUDY    38   7  27 VRB6      29.98S WCI  33
GRAND JUNCTION CLOUDY    42  12  29 NE3       29.86S
RIFLE          CLOUDY    48   6  18 W12       29.91R
MONTROSE       CLOUDY    45  25  45 SE6       29.89S
CORTEZ         CLOUDY    41  17  38 E6        29.90R
PAGE, AZ       CLEAR     56  10  16 SE5       29.83F
GRAND CANYON   PTCLDY    42  18  37 SW7       29.99F
KINGMAN        PTCLDY    58  15  18 SW13      29.87S
FLAGSTAFF      CLEAR     43  17  35 SW7       30.03S

$$

REGIONAL REPORTS    NEVADA/IDAHO/WYOMING

CITY           SKY/WX    TMP DP  RH WIND       PRES   REMARKS
LAS VEGAS, NV  PTCLDY    71  12  10 SW25G31   29.70S
ELY            CLOUDY    40   9  28 N13       29.93S WCI  32
ELKO           MOCLDY    36  12  37 E9        30.02R WCI  29
POCATELLO, ID  CLEAR     33  10  38 W12       30.03F WCI  24
BURLEY         MOCLDY    35  17  47 SW10      30.04R WCI  27
EVANSTON, WY   PTCLDY    28   0  29 CALM      29.95F
ROCK SPRINGS   PTCLDY    29   2  31 NW6       29.96F WCI  23

$$


USA.gov is the U.S. government's official web portal to all federal, state and local government web resources and services.